Вернуться в каталог

METEOR 2-5 DEB

АктивенPO
NORAD 28974·DEBRIS·🇷🇺 Russia

Запущен Oct 31, 1979 с Plesetsk Cosmodrome

Loading…

Ближайшие Пролёты (ближайшие 24 часа)

TLE

СвежийSource: Space-Track

Эпоха: Sep 14, 2026, 13:30 UTC

1 28974U 79095K   26257.56263123  .00006006  00000-0  15487-2 0  9999
2 28974  81.1973 357.5017 0013299  17.8650 342.3007 14.49911191 63211

Отслеживайте METEOR 2-5 DEB в реальном времени с AllMySat

Download on the App Store